Netzbetreibername:;Energie- und Wasserversorgung Altenburg GmbH;
gesetzliche Grundlage:;� 23c Abs. 2 Nr. 5 StromNZV (Lastgangtyp: Bezug aus der vorgelagerten Netzebene US);
Einheit:;kW;
Betrachtungszeitraum:;01.01.2022 bis 31.12.2022;
;;
;;
;;
Datum;Zeit;Wirkleistung (kW)
;;
01.01.2022;00:15:00;5414
01.01.2022;00:30:00;5345
01.01.2022;00:45:00;5247
01.01.2022;01:00:00;5141
01.01.2022;01:15:00;5122
01.01.2022;01:30:00;4949
01.01.2022;01:45:00;4765
01.01.2022;02:00:00;4677
01.01.2022;02:15:00;4511
01.01.2022;02:30:00;4443
01.01.2022;02:45:00;4288
01.01.2022;03:00:00;4284
01.01.2022;03:15:00;4256
01.01.2022;03:30:00;4301
01.01.2022;03:45:00;4331
01.01.2022;04:00:00;4375
01.01.2022;04:15:00;4380
01.01.2022;04:30:00;4282
01.01.2022;04:45:00;4390
01.01.2022;05:00:00;4357
01.01.2022;05:15:00;4437
01.01.2022;05:30:00;4355
01.01.2022;05:45:00;4275
01.01.2022;06:00:00;4276
01.01.2022;06:15:00;4225
01.01.2022;06:30:00;4159
01.01.2022;06:45:00;4157
01.01.2022;07:00:00;4239
01.01.2022;07:15:00;4402
01.01.2022;07:30:00;4529
01.01.2022;07:45:00;4688
01.01.2022;08:00:00;4789
01.01.2022;08:15:00;4933
01.01.2022;08:30:00;4902
01.01.2022;08:45:00;5195
01.01.2022;09:00:00;5340
01.01.2022;09:15:00;5496
01.01.2022;09:30:00;5647
01.01.2022;09:45:00;5872
01.01.2022;10:00:00;6096
01.01.2022;10:15:00;6444
01.01.2022;10:30:00;6583
01.01.2022;10:45:00;6805
01.01.2022;11:00:00;7017
01.01.2022;11:15:00;7492
01.01.2022;11:30:00;7953
01.01.2022;11:45:00;8206
01.01.2022;12:00:00;8267
01.01.2022;12:15:00;8158
01.01.2022;12:30:00;8011
01.01.2022;12:45:00;7829
01.01.2022;13:00:00;7509
01.01.2022;13:15:00;7028
01.01.2022;13:30:00;6947
01.01.2022;13:45:00;6721
01.01.2022;14:00:00;6727
01.01.2022;14:15:00;6763
01.01.2022;14:30:00;6737
01.01.2022;14:45:00;6641
01.01.2022;15:00:00;6629
01.01.2022;15:15:00;6622
01.01.2022;15:30:00;6633
01.01.2022;15:45:00;6672
01.01.2022;16:00:00;6619
01.01.2022;16:15:00;6845
01.01.2022;16:30:00;7032
01.01.2022;16:45:00;7598
01.01.2022;17:00:00;7901
01.01.2022;17:15:00;8109
01.01.2022;17:30:00;8252
01.01.2022;17:45:00;8443
01.01.2022;18:00:00;8601
01.01.2022;18:15:00;8592
01.01.2022;18:30:00;8664
01.01.2022;18:45:00;8675
01.01.2022;19:00:00;8609
01.01.2022;19:15:00;8468
01.01.2022;19:30:00;8275
01.01.2022;19:45:00;8030
01.01.2022;20:00:00;7821
01.01.2022;20:15:00;7723
01.01.2022;20:30:00;7521
01.01.2022;20:45:00;7345
01.01.2022;21:00:00;7164
01.01.2022;21:15:00;6998
01.01.2022;21:30:00;6816
01.01.2022;21:45:00;6645
01.01.2022;22:00:00;6592
01.01.2022;22:15:00;6557
01.01.2022;22:30:00;6316
01.01.2022;22:45:00;6140
01.01.2022;23:00:00;5959
01.01.2022;23:15:00;5668
01.01.2022;23:30:00;5504
01.01.2022;23:45:00;5257
02.01.2022;00:00:00;5034
02.01.2022;00:15:00;4808
02.01.2022;00:30:00;4620
02.01.2022;00:45:00;4495
02.01.2022;01:00:00;4317
02.01.2022;01:15:00;4249
02.01.2022;01:30:00;4222
02.01.2022;01:45:00;4150
02.01.2022;02:00:00;4129
02.01.2022;02:15:00;4057
02.01.2022;02:30:00;4031
02.01.2022;02:45:00;4008
02.01.2022;03:00:00;4019
02.01.2022;03:15:00;4109
02.01.2022;03:30:00;4151
02.01.2022;03:45:00;4212
02.01.2022;04:00:00;4301
02.01.2022;04:15:00;4389
02.01.2022;04:30:00;4390
02.01.2022;04:45:00;4410
02.01.2022;05:00:00;4432
02.01.2022;05:15:00;4499
02.01.2022;05:30:00;4473
02.01.2022;05:45:00;4367
02.01.2022;06:00:00;4306
02.01.2022;06:15:00;4253
02.01.2022;06:30:00;4300
02.01.2022;06:45:00;4298
02.01.2022;07:00:00;4450
02.01.2022;07:15:00;4670
02.01.2022;07:30:00;4824
02.01.2022;07:45:00;5040
02.01.2022;08:00:00;5414
02.01.2022;08:15:00;5680
02.01.2022;08:30:00;5668
02.01.2022;08:45:00;5924
02.01.2022;09:00:00;6083
02.01.2022;09:15:00;6345
02.01.2022;09:30:00;6589
02.01.2022;09:45:00;6748
02.01.2022;10:00:00;7094
02.01.2022;10:15:00;7313
02.01.2022;10:30:00;7395
02.01.2022;10:45:00;7612
02.01.2022;11:00:00;7810
02.01.2022;11:15:00;8331
02.01.2022;11:30:00;9007
02.01.2022;11:45:00;9334
02.01.2022;12:00:00;9321
02.01.2022;12:15:00;9067
02.01.2022;12:30:00;8665
02.01.2022;12:45:00;8137
02.01.2022;13:00:00;7793
02.01.2022;13:15:00;7488
02.01.2022;13:30:00;7301
02.01.2022;13:45:00;7138
02.01.2022;14:00:00;6932
02.01.2022;14:15:00;6753
02.01.2022;14:30:00;6715
02.01.2022;14:45:00;6848
02.01.2022;15:00:00;6797
02.01.2022;15:15:00;6748
02.01.2022;15:30:00;6757
02.01.2022;15:45:00;6668
02.01.2022;16:00:00;6655
02.01.2022;16:15:00;6714
02.01.2022;16:30:00;6933
02.01.2022;16:45:00;7449
02.01.2022;17:00:00;7863
02.01.2022;17:15:00;8095
02.01.2022;17:30:00;8433
02.01.2022;17:45:00;8816
02.01.2022;18:00:00;8858
02.01.2022;18:15:00;8975
02.01.2022;18:30:00;9017
02.01.2022;18:45:00;8936
02.01.2022;19:00:00;8843
02.01.2022;19:15:00;8623
02.01.2022;19:30:00;8475
02.01.2022;19:45:00;8181
02.01.2022;20:00:00;7959
02.01.2022;20:15:00;7766
02.01.2022;20:30:00;7503
02.01.2022;20:45:00;7289
02.01.2022;21:00:00;7102
02.01.2022;21:15:00;6909
02.01.2022;21:30:00;6765
02.01.2022;21:45:00;6583
02.01.2022;22:00:00;6391
02.01.2022;22:15:00;6332
02.01.2022;22:30:00;6026
02.01.2022;22:45:00;5789
02.01.2022;23:00:00;5575
02.01.2022;23:15:00;5362
02.01.2022;23:30:00;5186
02.01.2022;23:45:00;4985
03.01.2022;00:00:00;4727
03.01.2022;00:15:00;4537
03.01.2022;00:30:00;4428
03.01.2022;00:45:00;4346
03.01.2022;01:00:00;4208
03.01.2022;01:15:00;4188
03.01.2022;01:30:00;4138
03.01.2022;01:45:00;4076
03.01.2022;02:00:00;4041
03.01.2022;02:15:00;4089
03.01.2022;02:30:00;4057
03.01.2022;02:45:00;4081
03.01.2022;03:00:00;4074
03.01.2022;03:15:00;4159
03.01.2022;03:30:00;4221
03.01.2022;03:45:00;4268
03.01.2022;04:00:00;4348
03.01.2022;04:15:00;4551
03.01.2022;04:30:00;4614
03.01.2022;04:45:00;4692
03.01.2022;05:00:00;4872
03.01.2022;05:15:00;5088
03.01.2022;05:30:00;5153
03.01.2022;05:45:00;5312
03.01.2022;06:00:00;5395
03.01.2022;06:15:00;5602
03.01.2022;06:30:00;5902
03.01.2022;06:45:00;6170
03.01.2022;07:00:00;6573
03.01.2022;07:15:00;6950
03.01.2022;07:30:00;7346
03.01.2022;07:45:00;7777
03.01.2022;08:00:00;8005
03.01.2022;08:15:00;7936
03.01.2022;08:30:00;8056
03.01.2022;08:45:00;8210
03.01.2022;09:00:00;8430
03.01.2022;09:15:00;8414
03.01.2022;09:30:00;8441
03.01.2022;09:45:00;8404
03.01.2022;10:00:00;8504
03.01.2022;10:15:00;8682
03.01.2022;10:30:00;8675
03.01.2022;10:45:00;8780
03.01.2022;11:00:00;8964
03.01.2022;11:15:00;9055
03.01.2022;11:30:00;9285
03.01.2022;11:45:00;9428
03.01.2022;12:00:00;9472
03.01.2022;12:15:00;9435
03.01.2022;12:30:00;9148
03.01.2022;12:45:00;8868
03.01.2022;13:00:00;8878
03.01.2022;13:15:00;8653
03.01.2022;13:30:00;8416
03.01.2022;13:45:00;8226
03.01.2022;14:00:00;8051
03.01.2022;14:15:00;8092
03.01.2022;14:30:00;8079
03.01.2022;14:45:00;7996
03.01.2022;15:00:00;7994
03.01.2022;15:15:00;8063
03.01.2022;15:30:00;8093
03.01.2022;15:45:00;7960
03.01.2022;16:00:00;7973
03.01.2022;16:15:00;8209
03.01.2022;16:30:00;8270
03.01.2022;16:45:00;8772
03.01.2022;17:00:00;9050
03.01.2022;17:15:00;9324
03.01.2022;17:30:00;9388
03.01.2022;17:45:00;9588
03.01.2022;18:00:00;9702
03.01.2022;18:15:00;9623
03.01.2022;18:30:00;9451
03.01.2022;18:45:00;9400
03.01.2022;19:00:00;9305
03.01.2022;19:15:00;9052
03.01.2022;19:30:00;8860
03.01.2022;19:45:00;8648
03.01.2022;20:00:00;8428
03.01.2022;20:15:00;8178
03.01.2022;20:30:00;7768
03.01.2022;20:45:00;7571
03.01.2022;21:00:00;7350
03.01.2022;21:15:00;7029
03.01.2022;21:30:00;6907
03.01.2022;21:45:00;6702
03.01.2022;22:00:00;6589
03.01.2022;22:15:00;6423
03.01.2022;22:30:00;6158
03.01.2022;22:45:00;5878
03.01.2022;23:00:00;5799
03.01.2022;23:15:00;5460
03.01.2022;23:30:00;5272
03.01.2022;23:45:00;5099
04.01.2022;00:00:00;4917
04.01.2022;00:15:00;4730
04.01.2022;00:30:00;4599
04.01.2022;00:45:00;4496
04.01.2022;01:00:00;4383
04.01.2022;01:15:00;4369
04.01.2022;01:30:00;4285
04.01.2022;01:45:00;4253
04.01.2022;02:00:00;4213
04.01.2022;02:15:00;4147
04.01.2022;02:30:00;4214
04.01.2022;02:45:00;4217
04.01.2022;03:00:00;4213
04.01.2022;03:15:00;4263
04.01.2022;03:30:00;4289
04.01.2022;03:45:00;4524
04.01.2022;04:00:00;4560
04.01.2022;04:15:00;4706
04.01.2022;04:30:00;4777
04.01.2022;04:45:00;4808
04.01.2022;05:00:00;4870
04.01.2022;05:15:00;5083
04.01.2022;05:30:00;5233
04.01.2022;05:45:00;5421
04.01.2022;06:00:00;5482
04.01.2022;06:15:00;5674
04.01.2022;06:30:00;6009
04.01.2022;06:45:00;6217
04.01.2022;07:00:00;6590
04.01.2022;07:15:00;7040
04.01.2022;07:30:00;7420
04.01.2022;07:45:00;7834
04.01.2022;08:00:00;8050
04.01.2022;08:15:00;8356
04.01.2022;08:30:00;8297
04.01.2022;08:45:00;8386
04.01.2022;09:00:00;8649
04.01.2022;09:15:00;8744
04.01.2022;09:30:00;8769
04.01.2022;09:45:00;8746
04.01.2022;10:00:00;8839
04.01.2022;10:15:00;8915
04.01.2022;10:30:00;8947
04.01.2022;10:45:00;9193
04.01.2022;11:00:00;9222
04.01.2022;11:15:00;9341
04.01.2022;11:30:00;9649
04.01.2022;11:45:00;9795
04.01.2022;12:00:00;9886
04.01.2022;12:15:00;9625
04.01.2022;12:30:00;9250
04.01.2022;12:45:00;9158
04.01.2022;13:00:00;8826
04.01.2022;13:15:00;8742
04.01.2022;13:30:00;8691
04.01.2022;13:45:00;8659
04.01.2022;14:00:00;8592
04.01.2022;14:15:00;8497
04.01.2022;14:30:00;8583
04.01.2022;14:45:00;8553
04.01.2022;15:00:00;8506
04.01.2022;15:15:00;8511
04.01.2022;15:30:00;8489
04.01.2022;15:45:00;8437
04.01.2022;16:00:00;8470
04.01.2022;16:15:00;8589
04.01.2022;16:30:00;8760
04.01.2022;16:45:00;9196
04.01.2022;17:00:00;9293
04.01.2022;17:15:00;9388
04.01.2022;17:30:00;9588
04.01.2022;17:45:00;9757
04.01.2022;18:00:00;9853
04.01.2022;18:15:00;9796
04.01.2022;18:30:00;9813
04.01.2022;18:45:00;9715
04.01.2022;19:00:00;9515
04.01.2022;19:15:00;9257
04.01.2022;19:30:00;9066
04.01.2022;19:45:00;8775
04.01.2022;20:00:00;8653
04.01.2022;20:15:00;8330
04.01.2022;20:30:00;7909
04.01.2022;20:45:00;7591
04.01.2022;21:00:00;7413
04.01.2022;21:15:00;7264
04.01.2022;21:30:00;7064
04.01.2022;21:45:00;6944
04.01.2022;22:00:00;6801
04.01.2022;22:15:00;6646
04.01.2022;22:30:00;6402
04.01.2022;22:45:00;6166
04.01.2022;23:00:00;5942
04.01.2022;23:15:00;5664
04.01.2022;23:30:00;5437
04.01.2022;23:45:00;5255
05.01.2022;00:00:00;5036
05.01.2022;00:15:00;4852
05.01.2022;00:30:00;4757
05.01.2022;00:45:00;4634
05.01.2022;01:00:00;4569
05.01.2022;01:15:00;4558
05.01.2022;01:30:00;4510
05.01.2022;01:45:00;4440
05.01.2022;02:00:00;4381
05.01.2022;02:15:00;4328
05.01.2022;02:30:00;4323
05.01.2022;02:45:00;4334
05.01.2022;03:00:00;4393
05.01.2022;03:15:00;4470
05.01.2022;03:30:00;4582
05.01.2022;03:45:00;4669
05.01.2022;04:00:00;4723
05.01.2022;04:15:00;4902
05.01.2022;04:30:00;4889
05.01.2022;04:45:00;4939
05.01.2022;05:00:00;5059
05.01.2022;05:15:00;5392
05.01.2022;05:30:00;5566
05.01.2022;05:45:00;5741
05.01.2022;06:00:00;5900
05.01.2022;06:15:00;6172
05.01.2022;06:30:00;6432
05.01.2022;06:45:00;6768
05.01.2022;07:00:00;7122
05.01.2022;07:15:00;7495
05.01.2022;07:30:00;7916
05.01.2022;07:45:00;8400
05.01.2022;08:00:00;8811
05.01.2022;08:15:00;9144
05.01.2022;08:30:00;8985
05.01.2022;08:45:00;8850
05.01.2022;09:00:00;9072
05.01.2022;09:15:00;9108
05.01.2022;09:30:00;9044
05.01.2022;09:45:00;9079
05.01.2022;10:00:00;9053
05.01.2022;10:15:00;9159
05.01.2022;10:30:00;9142
05.01.2022;10:45:00;9209
05.01.2022;11:00:00;9297
05.01.2022;11:15:00;9405
05.01.2022;11:30:00;9613
05.01.2022;11:45:00;9758
05.01.2022;12:00:00;9733
05.01.2022;12:15:00;9569
05.01.2022;12:30:00;9369
05.01.2022;12:45:00;9238
05.01.2022;13:00:00;8887
05.01.2022;13:15:00;8838
05.01.2022;13:30:00;8765
05.01.2022;13:45:00;8665
05.01.2022;14:00:00;8608
05.01.2022;14:15:00;8461
05.01.2022;14:30:00;8525
05.01.2022;14:45:00;8584
05.01.2022;15:00:00;8626
05.01.2022;15:15:00;8677
05.01.2022;15:30:00;8666
05.01.2022;15:45:00;8713
05.01.2022;16:00:00;8809
05.01.2022;16:15:00;8835
05.01.2022;16:30:00;8962
05.01.2022;16:45:00;9265
05.01.2022;17:00:00;9591
05.01.2022;17:15:00;9739
05.01.2022;17:30:00;9950
05.01.2022;17:45:00;10260
05.01.2022;18:00:00;10175
05.01.2022;18:15:00;10126
05.01.2022;18:30:00;10120
05.01.2022;18:45:00;10048
05.01.2022;19:00:00;9842
05.01.2022;19:15:00;9515
05.01.2022;19:30:00;9172
05.01.2022;19:45:00;8975
05.01.2022;20:00:00;8812
05.01.2022;20:15:00;8451
05.01.2022;20:30:00;8177
05.01.2022;20:45:00;7851
05.01.2022;21:00:00;7573
05.01.2022;21:15:00;7313
05.01.2022;21:30:00;7192
05.01.2022;21:45:00;7007
05.01.2022;22:00:00;6884
05.01.2022;22:15:00;6627
05.01.2022;22:30:00;6498
05.01.2022;22:45:00;6273
05.01.2022;23:00:00;6069
05.01.2022;23:15:00;5821
05.01.2022;23:30:00;5634
05.01.2022;23:45:00;5469
06.01.2022;00:00:00;5217
06.01.2022;00:15:00;5012
06.01.2022;00:30:00;4865
06.01.2022;00:45:00;4735
06.01.2022;01:00:00;4713
06.01.2022;01:15:00;4650
06.01.2022;01:30:00;4630
06.01.2022;01:45:00;4580
06.01.2022;02:00:00;4571
06.01.2022;02:15:00;4637
06.01.2022;02:30:00;4565
06.01.2022;02:45:00;4638
06.01.2022;03:00:00;4689
06.01.2022;03:15:00;4768
06.01.2022;03:30:00;4866
06.01.2022;03:45:00;4918
06.01.2022;04:00:00;5004
06.01.2022;04:15:00;5151
06.01.2022;04:30:00;5162
06.01.2022;04:45:00;5158
06.01.2022;05:00:00;5244
06.01.2022;05:15:00;5450
06.01.2022;05:30:00;5550
06.01.2022;05:45:00;5772
06.01.2022;06:00:00;5932
06.01.2022;06:15:00;6194
06.01.2022;06:30:00;6441
06.01.2022;06:45:00;6701
06.01.2022;07:00:00;7114
06.01.2022;07:15:00;7553
06.01.2022;07:30:00;7888
06.01.2022;07:45:00;8412
06.01.2022;08:00:00;8632
06.01.2022;08:15:00;8616
06.01.2022;08:30:00;8717
06.01.2022;08:45:00;8729
06.01.2022;09:00:00;8879
06.01.2022;09:15:00;8779
06.01.2022;09:30:00;8744
06.01.2022;09:45:00;8699
06.01.2022;10:00:00;8970
06.01.2022;10:15:00;8967
06.01.2022;10:30:00;8992
06.01.2022;10:45:00;8990
06.01.2022;11:00:00;9171
06.01.2022;11:15:00;9321
06.01.2022;11:30:00;9415
06.01.2022;11:45:00;9383
06.01.2022;12:00:00;9327
06.01.2022;12:15:00;9333
06.01.2022;12:30:00;9217
06.01.2022;12:45:00;9076
06.01.2022;13:00:00;8841
06.01.2022;13:15:00;8662
06.01.2022;13:30:00;8466
06.01.2022;13:45:00;8431
06.01.2022;14:00:00;8260
06.01.2022;14:15:00;8167
06.01.2022;14:30:00;8130
06.01.2022;14:45:00;8017
06.01.2022;15:00:00;8038
06.01.2022;15:15:00;8211
06.01.2022;15:30:00;8190
06.01.2022;15:45:00;8100
06.01.2022;16:00:00;8108
06.01.2022;16:15:00;8147
06.01.2022;16:30:00;8508
06.01.2022;16:45:00;8878
06.01.2022;17:00:00;9521
06.01.2022;17:15:00;9790
06.01.2022;17:30:00;9867
06.01.2022;17:45:00;10099
06.01.2022;18:00:00;10274
06.01.2022;18:15:00;10172
06.01.2022;18:30:00;10193
06.01.2022;18:45:00;10061
06.01.2022;19:00:00;9839
06.01.2022;19:15:00;9583
06.01.2022;19:30:00;9359
06.01.2022;19:45:00;9216
06.01.2022;20:00:00;8855
06.01.2022;20:15:00;8598
06.01.2022;20:30:00;8230
06.01.2022;20:45:00;7887
06.01.2022;21:00:00;7708
06.01.2022;21:15:00;7529
06.01.2022;21:30:00;7325
06.01.2022;21:45:00;7118
06.01.2022;22:00:00;7140
06.01.2022;22:15:00;6972
06.01.2022;22:30:00;6703
06.01.2022;22:45:00;6474
06.01.2022;23:00:00;6277
06.01.2022;23:15:00;6052
06.01.2022;23:30:00;5872
06.01.2022;23:45:00;5659
07.01.2022;00:00:00;5621
07.01.2022;00:15:00;5359
07.01.2022;00:30:00;5223
07.01.2022;00:45:00;5089
07.01.2022;01:00:00;4966
07.01.2022;01:15:00;4970
07.01.2022;01:30:00;4937
07.01.2022;01:45:00;4911
07.01.2022;02:00:00;4899
07.01.2022;02:15:00;4972
07.01.2022;02:30:00;5013
07.01.2022;02:45:00;5023
07.01.2022;03:00:00;5054
07.01.2022;03:15:00;5096
07.01.2022;03:30:00;5087
07.01.2022;03:45:00;5137
07.01.2022;04:00:00;5165
07.01.2022;04:15:00;5348
07.01.2022;04:30:00;5396
07.01.2022;04:45:00;5462
07.01.2022;05:00:00;5584
07.01.2022;05:15:00;5793
07.01.2022;05:30:00;5842
07.01.2022;05:45:00;6019
07.01.2022;06:00:00;6087
07.01.2022;06:15:00;6397
07.01.2022;06:30:00;6641
07.01.2022;06:45:00;6822
07.01.2022;07:00:00;7264
07.01.2022;07:15:00;7833
07.01.2022;07:30:00;8108
07.01.2022;07:45:00;8508
07.01.2022;08:00:00;8827
07.01.2022;08:15:00;8737
07.01.2022;08:30:00;8817
07.01.2022;08:45:00;9003
07.01.2022;09:00:00;8915
07.01.2022;09:15:00;8837
07.01.2022;09:30:00;8856
07.01.2022;09:45:00;8973
07.01.2022;10:00:00;9197
07.01.2022;10:15:00;9345
07.01.2022;10:30:00;9331
07.01.2022;10:45:00;9444
07.01.2022;11:00:00;9484
07.01.2022;11:15:00;9589
07.01.2022;11:30:00;9698
07.01.2022;11:45:00;9788
07.01.2022;12:00:00;9744
07.01.2022;12:15:00;9619
07.01.2022;12:30:00;9453
07.01.2022;12:45:00;9386
07.01.2022;13:00:00;9290
07.01.2022;13:15:00;9092
07.01.2022;13:30:00;8956
07.01.2022;13:45:00;8902
07.01.2022;14:00:00;8943
07.01.2022;14:15:00;8833
07.01.2022;14:30:00;8810
07.01.2022;14:45:00;8703
07.01.2022;15:00:00;8654
07.01.2022;15:15:00;8630
07.01.2022;15:30:00;8655
07.01.2022;15:45:00;8713
07.01.2022;16:00:00;8794
07.01.2022;16:15:00;8886
07.01.2022;16:30:00;8991
07.01.2022;16:45:00;9505
07.01.2022;17:00:00;9664
07.01.2022;17:15:00;9803
07.01.2022;17:30:00;9879
07.01.2022;17:45:00;10040
07.01.2022;18:00:00;10217
07.01.2022;18:15:00;10067
07.01.2022;18:30:00;9922
07.01.2022;18:45:00;9907
07.01.2022;19:00:00;9901
07.01.2022;19:15:00;9483
07.01.2022;19:30:00;9194
07.01.2022;19:45:00;8945
07.01.2022;20:00:00;8690
07.01.2022;20:15:00;8368
07.01.2022;20:30:00;8153
07.01.2022;20:45:00;7942
07.01.2022;21:00:00;7642
07.01.2022;21:15:00;7464
07.01.2022;21:30:00;7311
07.01.2022;21:45:00;7193
07.01.2022;22:00:00;7098
07.01.2022;22:15:00;7077
07.01.2022;22:30:00;6832
07.01.2022;22:45:00;6637
07.01.2022;23:00:00;6455
07.01.2022;23:15:00;6241
07.01.2022;23:30:00;6107
07.01.2022;23:45:00;5911
08.01.2022;00:00:00;5691
08.01.2022;00:15:00;5563
08.01.2022;00:30:00;5339
08.01.2022;00:45:00;5210
08.01.2022;01:00:00;5099
08.01.2022;01:15:00;5007
08.01.2022;01:30:00;4954
08.01.2022;01:45:00;4917
08.01.2022;02:00:00;4865
08.01.2022;02:15:00;4813
08.01.2022;02:30:00;4814
08.01.2022;02:45:00;4839
08.01.2022;03:00:00;4835
08.01.2022;03:15:00;4916
08.01.2022;03:30:00;5014
08.01.2022;03:45:00;5133
08.01.2022;04:00:00;5151
08.01.2022;04:15:00;5186
08.01.2022;04:30:00;5160
08.01.2022;04:45:00;5142
08.01.2022;05:00:00;5160
08.01.2022;05:15:00;5245
08.01.2022;05:30:00;5257
08.01.2022;05:45:00;5283
08.01.2022;06:00:00;5211
08.01.2022;06:15:00;5294
08.01.2022;06:30:00;5461
08.01.2022;06:45:00;5510
08.01.2022;07:00:00;5700
08.01.2022;07:15:00;5917
08.01.2022;07:30:00;6172
08.01.2022;07:45:00;6478
08.01.2022;08:00:00;6962
08.01.2022;08:15:00;7347
08.01.2022;08:30:00;7542
08.01.2022;08:45:00;7583
08.01.2022;09:00:00;7914
08.01.2022;09:15:00;8151
08.01.2022;09:30:00;8281
08.01.2022;09:45:00;8587
08.01.2022;10:00:00;8770
08.01.2022;10:15:00;8869
08.01.2022;10:30:00;9040
08.01.2022;10:45:00;9049
08.01.2022;11:00:00;9216
08.01.2022;11:15:00;9589
08.01.2022;11:30:00;9851
08.01.2022;11:45:00;10131
08.01.2022;12:00:00;10212
08.01.2022;12:15:00;9840
08.01.2022;12:30:00;9576
08.01.2022;12:45:00;9388
08.01.2022;13:00:00;9014
08.01.2022;13:15:00;8760
08.01.2022;13:30:00;8451
08.01.2022;13:45:00;8130
08.01.2022;14:00:00;8058
08.01.2022;14:15:00;7912
08.01.2022;14:30:00;7774
08.01.2022;14:45:00;7698
08.01.2022;15:00:00;7731
08.01.2022;15:15:00;7713
08.01.2022;15:30:00;7765
08.01.2022;15:45:00;7849
08.01.2022;16:00:00;7754
08.01.2022;16:15:00;7787
08.01.2022;16:30:00;8018
08.01.2022;16:45:00;8348
08.01.2022;17:00:00;8934
08.01.2022;17:15:00;9251
08.01.2022;17:30:00;9517
08.01.2022;17:45:00;9785
08.01.2022;18:00:00;9999
08.01.2022;18:15:00;9906
08.01.2022;18:30:00;9930
08.01.2022;18:45:00;9802
08.01.2022;19:00:00;9686
08.01.2022;19:15:00;9585
08.01.2022;19:30:00;9262
08.01.2022;19:45:00;8970
08.01.2022;20:00:00;8828
08.01.2022;20:15:00;8595
08.01.2022;20:30:00;8199
08.01.2022;20:45:00;7975
08.01.2022;21:00:00;7726
08.01.2022;21:15:00;7586
08.01.2022;21:30:00;7317
08.01.2022;21:45:00;7213
08.01.2022;22:00:00;7117
08.01.2022;22:15:00;7109
08.01.2022;22:30:00;6917
08.01.2022;22:45:00;6757
08.01.2022;23:00:00;6583
08.01.2022;23:15:00;6345
08.01.2022;23:30:00;6183
08.01.2022;23:45:00;6111
09.01.2022;00:00:00;5797
09.01.2022;00:15:00;5532
09.01.2022;00:30:00;5344
09.01.2022;00:45:00;5185
09.01.2022;01:00:00;5020
09.01.2022;01:15:00;4982
09.01.2022;01:30:00;4909
09.01.2022;01:45:00;4903
09.01.2022;02:00:00;4834
09.01.2022;02:15:00;4793
09.01.2022;02:30:00;4805
09.01.2022;02:45:00;4841
09.01.2022;03:00:00;4880
09.01.2022;03:15:00;4883
09.01.2022;03:30:00;4923
09.01.2022;03:45:00;4997
09.01.2022;04:00:00;4935
09.01.2022;04:15:00;4926
09.01.2022;04:30:00;4941
09.01.2022;04:45:00;5025
09.01.2022;05:00:00;4991
09.01.2022;05:15:00;5093
09.01.2022;05:30:00;4982
09.01.2022;05:45:00;4969
09.01.2022;06:00:00;4862
09.01.2022;06:15:00;4755
09.01.2022;06:30:00;4716
09.01.2022;06:45:00;4834
09.01.2022;07:00:00;4833
09.01.2022;07:15:00;5066
09.01.2022;07:30:00;5343
09.01.2022;07:45:00;5678
09.01.2022;08:00:00;6075
09.01.2022;08:15:00;6130
09.01.2022;08:30:00;6492
09.01.2022;08:45:00;6850
09.01.2022;09:00:00;7273
09.01.2022;09:15:00;7455
09.01.2022;09:30:00;7460
09.01.2022;09:45:00;7669
09.01.2022;10:00:00;7952
09.01.2022;10:15:00;8246
09.01.2022;10:30:00;8379
09.01.2022;10:45:00;8716
09.01.2022;11:00:00;9095
09.01.2022;11:15:00;9608
09.01.2022;11:30:00;10083
09.01.2022;11:45:00;10211
09.01.2022;12:00:00;10285
09.01.2022;12:15:00;10024
09.01.2022;12:30:00;9688
09.01.2022;12:45:00;9164
09.01.2022;13:00:00;8704
09.01.2022;13:15:00;8411
09.01.2022;13:30:00;8329
09.01.2022;13:45:00;8068
09.01.2022;14:00:00;7930
09.01.2022;14:15:00;7839
09.01.2022;14:30:00;7757
09.01.2022;14:45:00;7791
09.01.2022;15:00:00;7798
09.01.2022;15:15:00;7709
09.01.2022;15:30:00;7851
09.01.2022;15:45:00;7715
09.01.2022;16:00:00;7616
09.01.2022;16:15:00;7765
09.01.2022;16:30:00;7831
09.01.2022;16:45:00;8056
09.01.2022;17:00:00;8550
09.01.2022;17:15:00;8816
09.01.2022;17:30:00;9166
09.01.2022;17:45:00;9399
09.01.2022;18:00:00;9555
09.01.2022;18:15:00;9489
09.01.2022;18:30:00;9432
09.01.2022;18:45:00;9480
09.01.2022;19:00:00;9215
09.01.2022;19:15:00;9063
09.01.2022;19:30:00;8762
09.01.2022;19:45:00;8597
09.01.2022;20:00:00;8356
09.01.2022;20:15:00;8093
09.01.2022;20:30:00;7879
09.01.2022;20:45:00;7581
09.01.2022;21:00:00;7347
09.01.2022;21:15:00;7241
09.01.2022;21:30:00;7037
09.01.2022;21:45:00;6809
09.01.2022;22:00:00;6725
09.01.2022;22:15:00;6561
09.01.2022;22:30:00;6369
09.01.2022;22:45:00;6142
09.01.2022;23:00:00;5920
09.01.2022;23:15:00;5696
09.01.2022;23:30:00;5592
09.01.2022;23:45:00;5366
10.01.2022;00:00:00;5189
10.01.2022;00:15:00;5030
10.01.2022;00:30:00;4941
10.01.2022;00:45:00;4798
10.01.2022;01:00:00;4674
10.01.2022;01:15:00;4628
10.01.2022;01:30:00;4674
10.01.2022;01:45:00;4636
10.01.2022;02:00:00;4642
10.01.2022;02:15:00;4651
10.01.2022;02:30:00;4627
10.01.2022;02:45:00;4602
10.01.2022;03:00:00;4650
10.01.2022;03:15:00;4725
10.01.2022;03:30:00;4761
10.01.2022;03:45:00;4890
10.01.2022;04:00:00;5058
10.01.2022;04:15:00;5227
10.01.2022;04:30:00;5211
10.01.2022;04:45:00;5246
10.01.2022;05:00:00;5323
10.01.2022;05:15:00;5676
10.01.2022;05:30:00;5690
10.01.2022;05:45:00;5872
10.01.2022;06:00:00;6009
10.01.2022;06:15:00;6218
10.01.2022;06:30:00;6526
10.01.2022;06:45:00;6849
10.01.2022;07:00:00;7202
10.01.2022;07:15:00;7705
10.01.2022;07:30:00;8070
10.01.2022;07:45:00;8503
10.01.2022;08:00:00;8864
10.01.2022;08:15:00;8943
10.01.2022;08:30:00;8876
10.01.2022;08:45:00;8929
10.01.2022;09:00:00;8998
10.01.2022;09:15:00;9154
10.01.2022;09:30:00;9162
10.01.2022;09:45:00;9311
10.01.2022;10:00:00;9341
10.01.2022;10:15:00;9317
10.01.2022;10:30:00;9341
10.01.2022;10:45:00;9481
10.01.2022;11:00:00;9489
10.01.2022;11:15:00;9658
10.01.2022;11:30:00;9819
10.01.2022;11:45:00;9928